Time,TemperatureF,DewpointF,PressureIn,WindDirection,WindDirectionDegrees,WindSpeedMPH,WindSpeedGustMPH,Humidity,HourlyPrecipIn,Conditions,Clouds,dailyrainin,SoftwareType,DateUTC
2013-05-27 00:00:00,46.4,39.3,30.25,NNE,30,0.0,0.0,76,0.00,,CLR,0.00,VWS V14.01,2013-05-27 04:00:00,
2013-05-27 00:15:00,45.7,38.9,30.25,NNE,30,0.0,0.0,77,0.00,,CLR,0.00,VWS V14.01,2013-05-27 04:15:00,
2013-05-27 00:30:00,45.2,38.8,30.25,NNE,30,0.0,0.0,78,0.00,,CLR,0.00,VWS V14.01,2013-05-27 04:30:00,
2013-05-27 00:45:00,44.8,39.0,30.25,NNE,30,0.0,0.0,80,0.00,,CLR,0.00,VWS V14.01,2013-05-27 04:45:00,
2013-05-27 01:00:00,44.5,39.0,30.25,NNE,30,0.0,0.0,81,0.00,,CLR,0.00,VWS V14.01,2013-05-27 05:00:00,
2013-05-27 01:15:00,44.8,39.3,30.25,NNE,30,0.0,0.0,81,0.00,,CLR,0.00,VWS V14.01,2013-05-27 05:15:00,
2013-05-27 01:30:00,45.4,39.9,30.25,NNE,30,0.0,0.0,81,0.00,,CLR,0.00,VWS V14.01,2013-05-27 05:30:00,
2013-05-27 01:45:00,46.8,40.0,30.25,North,11,0.0,0.0,77,0.00,,CLR,0.00,VWS V14.01,2013-05-27 05:45:00,
2013-05-27 02:00:00,46.5,39.7,30.25,North,11,0.0,0.0,77,0.00,,CLR,0.00,VWS V14.01,2013-05-27 06:00:00,
2013-05-27 02:15:00,46.8,41.0,30.24,North,11,0.0,0.0,80,0.00,,CLR,0.00,VWS V14.01,2013-05-27 06:15:00,
2013-05-27 02:30:00,47.6,40.8,30.24,North,11,0.0,0.0,77,0.00,,CLR,0.00,VWS V14.01,2013-05-27 06:30:00,
2013-05-27 02:45:00,47.9,41.4,30.23,North,11,0.0,0.0,78,0.00,,CLR,0.00,VWS V14.01,2013-05-27 06:45:00,
2013-05-27 03:00:00,48.2,41.7,30.22,North,11,0.0,0.0,78,0.00,,CLR,0.00,VWS V14.01,2013-05-27 07:00:00,
2013-05-27 03:15:00,48.6,41.0,30.22,North,11,0.0,0.0,75,0.00,,CLR,0.00,VWS V14.01,2013-05-27 07:15:00,
2013-05-27 03:30:00,49.2,41.6,30.22,North,11,0.0,0.0,75,0.00,,CLR,0.00,VWS V14.01,2013-05-27 07:30:00,
2013-05-27 03:45:00,49.4,42.2,30.21,North,11,0.0,0.0,76,0.00,,CLR,0.00,VWS V14.01,2013-05-27 07:45:00,
2013-05-27 04:00:00,49.4,42.8,30.21,North,11,0.0,0.0,78,0.00,,CLR,0.00,VWS V14.01,2013-05-27 08:00:00,
2013-05-27 04:15:00,49.4,43.2,30.21,North,11,0.0,0.0,79,0.00,,CLR,0.00,VWS V14.01,2013-05-27 08:15:00,
2013-05-27 04:30:00,49.2,43.6,30.22,North,11,0.0,0.0,81,0.00,,CLR,0.00,VWS V14.01,2013-05-27 08:30:00,
2013-05-27 04:45:00,49.4,44.1,30.22,North,11,0.0,0.0,82,0.00,,CLR,0.00,VWS V14.01,2013-05-27 08:45:00,
2013-05-27 05:00:00,49.4,43.8,30.22,North,11,0.0,0.0,81,0.00,,CLR,0.00,VWS V14.01,2013-05-27 09:00:00,
2013-05-27 05:15:00,49.4,43.8,30.22,North,11,0.0,0.0,81,0.00,,BKN100,0.00,VWS V14.01,2013-05-27 09:15:00,
2013-05-27 05:30:00,49.5,43.9,30.21,North,11,0.0,0.0,81,0.00,,BKN100,0.00,VWS V14.01,2013-05-27 09:30:00,
2013-05-27 05:45:00,49.5,43.3,30.21,North,11,0.0,0.0,79,0.00,,BKN100,0.00,VWS V14.01,2013-05-27 09:45:00,
2013-05-27 06:00:00,50.1,42.2,30.22,North,11,0.0,0.0,74,0.00,,BKN100,0.00,VWS V14.01,2013-05-27 10:00:00,
2013-05-27 06:15:00,50.8,42.5,30.23,North,11,0.0,0.0,73,0.00,,OVC100,0.00,VWS V14.01,2013-05-27 10:15:00,
2013-05-27 06:30:00,51.0,42.7,30.24,North,11,0.0,0.0,73,0.00,,OVC100,0.00,VWS V14.01,2013-05-27 10:30:00,
2013-05-27 06:45:00,51.1,43.1,30.24,North,11,0.0,0.0,74,0.00,,OVC100,0.00,VWS V14.01,2013-05-27 10:45:00,
2013-05-27 07:00:00,51.1,44.2,30.24,North,11,0.0,0.0,77,0.00,,OVC100,0.00,VWS V14.01,2013-05-27 11:00:00,
2013-05-27 07:15:00,51.3,45.7,30.25,North,11,0.0,0.0,81,0.00,,-RA,0.00,VWS V14.01,2013-05-27 11:15:00,
2013-05-27 07:30:00,51.1,45.5,30.25,North,11,0.0,0.0,81,0.00,,-RA,0.00,VWS V14.01,2013-05-27 11:30:00,
2013-05-27 07:45:00,51.3,46.0,30.25,North,11,0.0,0.0,82,0.00,,-RA,0.00,VWS V14.01,2013-05-27 11:45:00,
2013-05-27 08:00:00,51.4,45.8,30.24,North,11,0.0,0.0,81,0.00,,-RA,0.00,VWS V14.01,2013-05-27 12:00:00,
2013-05-27 08:15:00,51.7,45.4,30.23,North,11,0.0,0.0,79,0.01,,OVC085,0.01,VWS V14.01,2013-05-27 12:15:00,
2013-05-27 08:30:00,52.2,45.6,30.23,North,11,0.0,0.0,78,0.01,,OVC085,0.01,VWS V14.01,2013-05-27 12:30:00,
2013-05-27 08:45:00,52.3,45.3,30.24,North,11,0.0,0.0,77,0.01,,OVC085,0.01,VWS V14.01,2013-05-27 12:45:00,
2013-05-27 09:00:00,52.3,45.7,30.25,North,11,0.0,0.0,78,0.01,,OVC085,0.01,VWS V14.01,2013-05-27 13:00:00,
2013-05-27 09:15:00,52.0,45.4,30.25,North,11,0.0,0.0,78,0.01,,-RA,0.01,VWS V14.01,2013-05-27 13:15:00,
2013-05-27 09:30:00,52.2,46.5,30.25,North,11,0.0,0.0,81,0.00,,-RA,0.01,VWS V14.01,2013-05-27 13:30:00,
2013-05-27 09:45:00,52.3,47.0,30.24,North,11,0.0,0.0,82,0.00,,-RA,0.01,VWS V14.01,2013-05-27 13:45:00,
2013-05-27 10:00:00,52.6,47.6,30.24,North,11,0.0,0.0,83,0.00,,-RA,0.01,VWS V14.01,2013-05-27 14:00:00,
2013-05-27 10:15:00,52.8,46.8,30.24,North,11,0.0,0.0,80,0.00,,-RA,0.01,VWS V14.01,2013-05-27 14:15:00,
2013-05-27 10:30:00,53.1,46.4,30.25,North,11,0.0,0.0,78,0.00,,OVC085,0.01,VWS V14.01,2013-05-27 14:30:00,
2013-05-27 10:45:00,53.1,47.4,30.25,North,11,0.0,0.0,81,0.01,,OVC085,0.02,VWS V14.01,2013-05-27 14:45:00,
2013-05-27 11:00:00,52.9,48.2,30.25,North,11,0.0,0.0,84,0.02,,OVC085,0.03,VWS V14.01,2013-05-27 15:00:00,
2013-05-27 11:15:00,52.8,48.1,30.26,North,11,0.0,0.0,84,0.02,,OVC085,0.03,VWS V14.01,2013-05-27 15:15:00,
2013-05-27 11:30:00,52.5,47.8,30.26,North,11,0.0,0.0,84,0.02,,OVC085,0.03,VWS V14.01,2013-05-27 15:30:00,
2013-05-27 11:45:00,52.6,48.2,30.26,North,11,0.0,0.0,85,0.02,,-RA,0.03,VWS V14.01,2013-05-27 15:45:00,
2013-05-27 12:00:00,52.8,47.1,30.25,North,11,0.0,1.0,81,0.01,,-RA,0.03,VWS V14.01,2013-05-27 16:00:00,
2013-05-27 12:15:00,54.5,47.8,30.24,NE,54,0.0,1.0,78,0.00,,OVC040,0.03,VWS V14.01,2013-05-27 16:15:00,
2013-05-27 12:30:00,56.6,47.3,30.24,ESE,112,0.0,5.0,71,0.00,,OVC040,0.03,VWS V14.01,2013-05-27 16:30:00,
2013-05-27 12:45:00,57.6,47.1,30.23,East,80,0.0,6.0,68,0.00,,OVC040,0.03,VWS V14.01,2013-05-27 16:45:00,
2013-05-27 13:00:00,59.2,47.9,30.22,ESE,119,0.0,5.0,66,0.00,,OVC040,0.03,VWS V14.01,2013-05-27 17:00:00,
2013-05-27 13:15:00,60.1,47.5,30.20,ENE,61,2.0,8.0,63,0.00,,OVC110,0.03,VWS V14.01,2013-05-27 17:15:00,
2013-05-27 13:30:00,61.6,46.7,30.20,NE,47,0.0,10.0,58,0.00,,OVC110,0.03,VWS V14.01,2013-05-27 17:30:00,
2013-05-27 13:45:00,63.1,47.2,30.18,SE,137,0.0,8.0,56,0.00,,OVC110,0.03,VWS V14.01,2013-05-27 17:45:00,
2013-05-27 14:00:00,63.4,46.0,30.17,East,80,8.0,12.0,53,0.00,,OVC110,0.03,VWS V14.01,2013-05-27 18:00:00,
2013-05-27 14:15:00,65.0,48.5,30.16,SE,130,1.0,2.0,55,0.00,,CLR,0.03,VWS V14.01,2013-05-27 18:15:00,
2013-05-27 14:30:00,64.0,45.5,30.16,East,83,0.0,1.0,51,0.00,,CLR,0.03,VWS V14.01,2013-05-27 18:30:00,
2013-05-27 14:45:00,64.3,44.8,30.16,South,172,0.0,5.0,49,0.00,,CLR,0.03,VWS V14.01,2013-05-27 18:45:00,
2013-05-27 15:00:00,63.9,42.7,30.15,East,88,0.0,5.0,46,0.00,,CLR,0.03,VWS V14.01,2013-05-27 19:00:00,
2013-05-27 15:15:00,65.5,43.0,30.14,ENE,72,0.0,8.0,44,0.00,,CLR,0.03,VWS V14.01,2013-05-27 19:15:00,
2013-05-27 15:30:00,65.8,45.6,30.13,ENE,78,0.0,10.0,48,0.00,,CLR,0.03,VWS V14.01,2013-05-27 19:30:00,
2013-05-27 15:45:00,67.1,46.2,30.13,East,90,2.0,5.0,47,0.00,,CLR,0.03,VWS V14.01,2013-05-27 19:45:00,
2013-05-27 16:00:00,67.9,46.4,30.12,ENE,78,0.0,12.0,46,0.00,,CLR,0.03,VWS V14.01,2013-05-27 20:00:00,
2013-05-27 16:15:00,67.9,48.1,30.12,SE,145,0.0,10.0,49,0.00,,CLR,0.03,VWS V14.01,2013-05-27 20:15:00,
2013-05-27 16:30:00,67.4,47.6,30.11,East,97,0.0,2.0,49,0.00,,CLR,0.03,VWS V14.01,2013-05-27 20:30:00,
2013-05-27 16:45:00,67.6,49.4,30.11,NE,41,0.0,1.0,52,0.00,,CLR,0.03,VWS V14.01,2013-05-27 20:45:00,
2013-05-27 17:00:00,67.6,48.8,30.10,ENE,73,0.0,1.0,51,0.00,,CLR,0.03,VWS V14.01,2013-05-27 21:00:00,
2013-05-27 17:15:00,67.6,48.3,30.09,ENE,71,0.0,0.0,50,0.00,,CLR,0.03,VWS V14.01,2013-05-27 21:15:00,
2013-05-27 17:30:00,68.3,49.5,30.09,East,92,0.0,0.0,51,0.00,,CLR,0.03,VWS V14.01,2013-05-27 21:30:00,
2013-05-27 17:45:00,67.9,49.7,30.08,ENE,68,0.0,1.0,52,0.00,,CLR,0.03,VWS V14.01,2013-05-27 21:45:00,
2013-05-27 18:00:00,68.1,49.8,30.08,ENE,64,0.0,0.0,52,0.00,,CLR,0.03,VWS V14.01,2013-05-27 22:00:00,
2013-05-27 18:15:00,67.8,50.6,30.07,East,80,0.0,1.0,54,0.00,,CLR,0.03,VWS V14.01,2013-05-27 22:15:00,
2013-05-27 18:30:00,67.4,50.7,30.06,ENE,69,0.0,0.0,55,0.00,,CLR,0.03,VWS V14.01,2013-05-27 22:30:00,
2013-05-27 18:45:00,67.3,50.6,30.05,ENE,61,0.0,2.0,55,0.00,,CLR,0.03,VWS V14.01,2013-05-27 22:45:00,
2013-05-27 19:00:00,67.1,51.4,30.05,ENE,66,0.0,0.0,57,0.00,,CLR,0.03,VWS V14.01,2013-05-27 23:00:00,
2013-05-27 19:15:00,66.6,51.4,30.05,ESE,114,0.0,5.0,58,0.00,,CLR,0.03,VWS V14.01,2013-05-27 23:15:00,
2013-05-27 19:30:00,66.1,51.4,30.05,ENE,58,0.0,5.0,59,0.00,,CLR,0.03,VWS V14.01,2013-05-27 23:30:00,
2013-05-27 19:45:00,65.6,50.4,30.05,NE,56,0.0,2.0,58,0.00,,CLR,0.03,VWS V14.01,2013-05-27 23:45:00,
2013-05-27 20:00:00,65.5,50.8,30.05,NE,56,0.0,0.0,59,0.00,,CLR,0.03,VWS V14.01,2013-05-28 00:00:00,
2013-05-27 20:15:00,65.0,50.3,30.05,East,89,0.0,0.0,59,0.00,,CLR,0.03,VWS V14.01,2013-05-28 00:15:00,
2013-05-27 20:30:00,64.7,50.5,30.04,ESE,106,0.0,0.0,60,0.00,,CLR,0.03,VWS V14.01,2013-05-28 00:30:00,
2013-05-27 20:45:00,64.0,50.3,30.04,ENE,78,0.0,0.0,61,0.00,,CLR,0.03,VWS V14.01,2013-05-28 00:45:00,
2013-05-27 21:00:00,63.5,50.3,30.03,East,79,0.0,0.0,62,0.00,,CLR,0.03,VWS V14.01,2013-05-28 01:00:00,
2013-05-27 21:15:00,62.9,50.1,30.03,East,79,0.0,0.0,63,0.00,,CLR,0.03,VWS V14.01,2013-05-28 01:15:00,
2013-05-27 21:30:00,62.6,50.3,30.04,South,169,2.0,3.0,64,0.00,,CLR,0.03,VWS V14.01,2013-05-28 01:30:00,
2013-05-27 21:45:00,62.3,50.4,30.04,SW,219,0.0,0.0,65,0.00,,CLR,0.03,VWS V14.01,2013-05-28 01:45:00,
2013-05-27 22:00:00,62.1,50.6,30.04,SW,215,0.0,0.0,66,0.00,,CLR,0.03,VWS V14.01,2013-05-28 02:00:00,
2013-05-27 22:15:00,62.1,51.0,30.03,SSW,212,0.0,0.0,67,0.00,,FEW110,0.03,VWS V14.01,2013-05-28 02:15:00,
2013-05-27 22:30:00,62.0,50.9,30.04,SSE,154,0.0,1.0,67,0.00,,FEW110,0.03,VWS V14.01,2013-05-28 02:30:00,
2013-05-27 22:45:00,62.0,51.7,30.04,South,172,0.0,0.0,69,0.00,,FEW110,0.03,VWS V14.01,2013-05-28 02:45:00,
2013-05-27 23:00:00,61.8,51.5,30.04,South,172,0.0,0.0,69,0.00,,FEW110,0.03,VWS V14.01,2013-05-28 03:00:00,
2013-05-27 23:15:00,61.8,51.9,30.04,SSE,167,0.0,2.0,70,0.00,,SCT110,0.03,VWS V14.01,2013-05-28 03:15:00,
2013-05-27 23:30:00,61.6,52.1,30.03,South,169,0.0,1.0,71,0.00,,SCT110,0.03,VWS V14.01,2013-05-28 03:30:00,
2013-05-27 23:45:00,61.5,52.4,30.03,South,171,0.0,0.0,72,0.00,,SCT110,0.03,VWS V14.01,2013-05-28 03:45:00,